Torna al catalogo

STARLINK-3974

AttivoComunicazioniVLEO
NORAD 52634·PAYLOAD·🇺🇸 United States

Lanciato May 14, 2022 da Cape Canaveral Space Force Station

Loading…

Prossimi Passaggi (prossime 24 ore)

TLE

AggiornatoSource: CelesTrak SupGP

Epoca: Sep 15, 2026, 02:14 UTC

1 52634C 22052AN  26258.09354167  .00033878  00000+0  96923-3 0  2587
2 52634  53.1573 128.0037 0001211  83.0190 147.0143 15.35383098    19

Traccia STARLINK-3974 in tempo reale con AllMySat

Download on the App Store